Starlink 3244

operational
NORAD ID: 49741 Int'l Des: 2021-115 Owner: SPXS Country: US Constellation: starlink
LEOCIRCULAR

Über Starlink 3244

Beschreibung wird geladen...

Live-Position

3D-Globus wird geladen...

Nächste Überflüge

Höhenverlauf

Altitude vs Time

uPlot chart will show altitude changes over time

Zweizeiliger Elementsatz

1 49741U 21115T 25352.87055883 .00000930 00000-0 76489-4 0 9996
2 49741 53.2166 151.9435 0001327 89.6152 270.4992 15.08842992223336
Epoch: 18. Dez. 2025 • Age: 8 hours

Aktueller Status

Höhe 544.8 km
Geschwindigkeit 7.60 km/s
Subsatellitenpunkt 50.53°N, 98.13°E
Startdatum 2. Dez. 2021
Alter 4 years
Typ internet

Technische Details

Klassifizierung Payload
Masse 290.00 kg
Trockenmasse 270.00 kg
Gesamtmasse 290.00 kg
Länge 0.20 m
Durchmesser 2.80 m
Spannweite 9.00 m
Form Box + pan
Hersteller SPXS
Bus-Typ Starlink
Phasenstatus In Orbit
Besitzer/Staat SPXS/US

Große Konstellationen

Loading constellations...